Location: Newark
(48.5156°N, 1.8989°W)
Time: 23:19:14
(UTC+00:00)

Vanguard 1 Rocket - Pass Details

Date: 22 November 2019
Orbit: 650 x 4226 km, 34.3° (Epoch: 07 December)

Event Time Altitude Azimuth Distance (km) Brightness Sun altitude
Exits shadow 05:31:18 11° 217° (SW) 2,068 9.0 -18.5°
Maximum altitude 05:33:45 15° 183° (S) 1,924 9.1 -18.1°
Drops below altitude 10° 05:36:51 10° 148° (SSE) 2,512 10.2 -17.6°
Sets 05:41:05 0° 127° (SE) 3,930 11.9 -16.9°
